W2DRT Weather Reports


time (UTC)temp
C
wind
direction
speed
KPH
gust
KPH
rain 1hr
cm
rain 24hr
cm
rain mn
cm
humidity
%
barometer
mb
20260506192314 18 0.0 0.0 0.00 0.00 0.00 71 1008.2
20260506191312 18 0.0 0.0 0.00 0.00 0.00 71 1008.5
20260506190311 18 0.0 0.0 0.00 0.00 0.00 70 1008.5
20260506185310 18 0.0 0.0 0.00 0.00 0.00 69 1008.5
20260506184310 18 0.0 0.0 0.00 0.00 0.00 69 1008.5
20260506183308 18 0.0 0.0 0.00 0.00 0.00 69 1008.5
20260506182306 18 0.0 0.0 0.00 0.00 0.00 68 1008.5
20260506181258 18 0.0 0.0 0.00 0.00 0.00 68 1008.5
20260506180257 18 0.0 0.0 0.00 0.00 0.00 68 1008.5
20260506175256 19 0.0 0.0 0.00 0.00 0.00 67 1008.9
20260506174251 19 0.0 0.0 0.00 0.00 0.00 66 1009.2
20260506173251 20 0.0 0.0 0.00 0.00 0.00 66 1009.2
20260506172250 21 0.0 0.0 0.00 0.00 0.00 66 1008.9
20260506171245 21 0.0 0.0 0.00 0.00 0.00 66 1009.2
20260506170245 21 0.0 0.0 0.00 0.00 0.00 67 1008.9
20260506165240 20 0.0 0.0 0.00 0.00 0.00 69 1009.2
20260506164240 19 0.0 0.0 0.00 0.00 0.00 69 1009.6
20260506163237 19 0.0 0.0 0.00 0.00 0.00 68 1009.6
20260506162232 19 0.0 0.0 0.00 0.00 0.00 67 1010.2
20260506161232 19 0.0 0.0 0.00 0.00 0.00 66 1010.6
20260506160232 19 0.0 0.0 0.00 0.00 0.00 65 1010.6
20260506155227 19 0.0 0.0 0.00 0.00 0.00 63 1010.6
20260506153334 20 0.0 0.0 0.00 0.00 0.00 60 1010.6
20260506125556 20 0.0 0.0 0.00 0.00 0.00 65 1010.6
20260506124551 20 0.0 0.0 0.00 0.00 0.00 65 1010.6
20260506123546 19 0.0 0.0 0.00 0.00 0.00 67 1010.6
20260506122541 18 0.0 0.0 0.00 0.00 0.00 67 1010.9
20260506121536 18 0.0 0.0 0.00 0.00 0.00 67 1010.6
20260506120536 18 0.0 0.0 0.00 0.00 0.00 68 1010.9
20260506115531 18 0.0 0.0 0.00 0.00 0.00 68 1010.9
20260506114526 18 0.0 0.0 0.00 0.00 0.00 69 1010.6
20260506113522 18 0.0 0.0 0.00 0.00 0.00 69 1010.9
20260506112522 17 0.0 0.0 0.00 0.00 0.00 70 1010.9
20260506111518 17 0.0 0.0 0.00 0.00 0.00 71 1010.9
20260506110512 17 0.0 0.0 0.00 0.00 0.00 71 1010.9
20260506105511 16 0.0 0.0 0.00 0.00 0.00 72 1010.6
20260506104506 16 0.0 0.0 0.00 0.00 0.00 72 1010.9
20260506103507 16 0.0 0.0 0.00 0.00 0.00 72 1010.6
20260506102502 16 0.0 0.0 0.00 0.00 0.00 72 1010.9
20260506101501 16 0.0 0.0 0.00 0.00 0.00 72 1010.9
20260506100457 16 0.0 0.0 0.00 0.00 0.00 72 1010.9
20260506095453 16 0.0 0.0 0.00 0.00 0.00 72 1010.6
20260506094453 16 0.0 0.0 0.00 0.00 0.00 72 1010.6
20260506093448 16 0.0 0.0 0.00 0.00 0.00 72 1010.6
20260506092443 16 0.0 0.0 0.00 0.00 0.00 72 1010.6
20260506091438 16 0.0 0.0 0.00 0.00 0.00 72 1010.6
20260506090439 16 0.0 0.0 0.00 0.00 0.00 72 1010.6
20260506085438 16 0.0 0.0 0.00 0.00 0.00 72 1010.9
20260506084437 16 0.0 0.0 0.00 0.00 0.00 71 1010.9
20260506083436 17 0.0 0.0 0.00 0.00 0.00 71 1011.2
20260506082436 17 0.0 0.0 0.00 0.00 0.00 71 1010.9
20260506081436 17 0.0 0.0 0.00 0.00 0.00 71 1010.9
20260506080436 17 0.0 0.0 0.00 0.00 0.00 71 1010.9
20260506073425 17 0.0 0.0 0.00 0.00 0.00 70 1010.9
20260506072426 17 0.0 0.0 0.00 0.00 0.00 70 1010.9
20260506071421 17 0.0 0.0 0.00 0.00 0.00 68 1010.9
20260506070420 17 0.0 0.0 0.00 0.00 0.00 68 1010.9
20260506062404 18 0.0 0.0 0.00 0.00 0.00 66 1010.9
20260506061402 18 0.0 0.0 0.00 0.00 0.00 66 1011.2
20260506060358 18 0.0 0.0 0.00 0.00 0.00 65 1010.9
20260506051354 18 0.0 0.0 0.00 0.00 0.00 62 1011.2
20260506050348 18 0.0 0.0 0.00 0.00 0.00 62 1011.9
20260506044348 18 0.0 0.0 0.00 0.00 0.00 60 1011.6
20260506043348 18 0.0 0.0 0.00 0.00 0.00 59 1011.6
20260506042345 19 0.0 0.0 0.00 0.00 0.00 58 1011.6
20260506041340 19 0.0 0.0 0.00 0.00 0.00 58 1011.6
20260506040340 19 0.0 0.0 0.00 0.00 0.00 57 1011.9
20260506035340 19 0.0 0.0 0.00 0.00 0.00 57 1011.2
20260506034340 19 0.0 0.0 0.00 0.00 0.00 55 1011.6
20260506033339 20 0.0 0.0 0.00 0.00 0.00 55 1011.6
20260506032339 20 0.0 0.0 0.00 0.00 0.00 54 1011.6
20260506031339 20 0.0 0.0 0.00 0.00 0.00 53 1011.2
20260506030334 20 0.0 0.0 0.00 0.00 0.00 52 1011.2
20260506025333 20 0.0 0.0 0.00 0.00 0.00 52 1011.6
20260506024332 20 0.0 0.0 0.00 0.00 0.00 51 1011.6
20260506023331 20 0.0 0.0 0.00 0.00 0.00 50 1011.6
20260506022331 20 0.0 0.0 0.00 0.00 0.00 50 1011.6
20260506021326 20 0.0 0.0 0.00 0.00 0.00 49 1011.6
20260506020326 20 0.0 0.0 0.00 0.00 0.00 49 1011.9
20260506015321 20 0.0 0.0 0.00 0.00 0.00 49 1011.2
20260506014320 20 0.0 0.0 0.00 0.00 0.00 48 1011.2
20260506013320 21 0.0 0.0 0.00 0.00 0.00 48 1011.2
20260506012320 21 0.0 0.0 0.00 0.00 0.00 47 1011.2
20260506011319 21 0.0 0.0 0.00 0.00 0.00 46 1010.9
20260506010315 21 0.0 0.0 0.00 0.00 0.00 44 1010.9
20260506005314 22 0.0 0.0 0.00 0.00 0.00 43 1010.9
20260506004313 22 0.0 0.0 0.00 0.00 0.00 42 1010.9
20260506003312 22 0.0 0.0 0.00 0.00 0.00 40 1010.6
20260506002310 22 0.0 0.0 0.00 0.00 0.00 39 1010.6
20260506001309 23 0.0 0.0 0.00 0.00 0.00 37 1010.6
20260506000310 23 0.0 0.0 0.00 0.00 0.00 35 1010.6
20260505235305 23 0.0 0.0 0.00 0.00 0.00 34 1010.2
20260505234304 24 0.0 0.0 0.00 0.00 0.00 33 1010.2
20260505233259 25 0.0 0.0 0.00 0.00 0.00 32 1009.9
20260505232253 25 0.0 0.0 0.00 0.00 0.00 31 1009.9
20260505231248 25 0.0 0.0 0.00 0.00 0.00 29 1009.9
20260505230248 26 0.0 0.0 0.00 0.00 0.00 29 1009.9
20260505225248 27 0.0 0.0 0.00 0.00 0.00 28 1009.6
20260505224247 27 0.0 0.0 0.00 0.00 0.00 27 1009.6
20260505223247 27 0.0 0.0 0.00 0.00 0.00 24 1009.2
20260505222245 28 0.0 0.0 0.00 0.00 0.00 23 1009.2
20260505221245 29 0.0 0.0 0.00 0.00 0.00 21 1009.6
20260505220245 30 0.0 0.0 0.00 0.00 0.00 18 1009.2
20260505215240 31 0.0 0.0 0.00 0.00 0.00 14 1009.2
20260505214235 32 0.0 0.0 0.00 0.00 0.00 14 1009.2
20260505213236 33 0.0 0.0 0.00 0.00 0.00 12 1009.2
20260505212235 33 0.0 0.0 0.00 0.00 0.00 12 1009.2
20260505211235 33 0.0 0.0 0.00 0.00 0.00 12 1008.9
20260505210234 33 0.0 0.0 0.00 0.00 0.00 19 1008.9
20260505205230 33 0.0 0.0 0.00 0.00 0.00 22 1008.9
20260505204230 33 0.0 0.0 0.00 0.00 0.00 26 1008.9
20260505203229 31 0.0 0.0 0.00 0.00 0.00 28 1008.5
20260505202227 29 0.0 0.0 0.00 0.00 0.00 30 1008.9
20260505201227 29 0.0 0.0 0.00 0.00 0.00 29 1008.9
20260505200228 29 0.0 0.0 0.00 0.00 0.00 30 1008.9
20260505195227 29 0.0 0.0 0.00 0.00 0.00 29 1008.9
20260505194226 29 0.0 0.0 0.00 0.00 0.00 30 1008.9
20260505193225 29 0.0 0.0 0.00 0.00 0.00 29 1009.2